Time,TemperatureF,DewpointF,PressureIn,WindDirection,WindDirectionDegrees,WindSpeedMPH,WindSpeedGustMPH,Humidity,HourlyPrecipIn,Conditions,Clouds,dailyrainin,SoftwareType,DateUTC
2013-01-20 00:04:00,41.0,35.0,29.78,West,259,17.0,25.0,78,0.00,,,0.00,,2013-01-20 05:04:00,
2013-01-20 00:12:00,41.0,35.0,29.78,West,259,17.0,25.0,78,0.00,,,0.00,,2013-01-20 05:12:00,
2013-01-20 00:22:00,41.0,35.0,29.79,West,272,17.0,26.0,78,0.00,,,0.00,,2013-01-20 05:22:00,
2013-01-20 00:33:00,41.0,34.0,29.79,West,276,26.0,34.0,75,0.00,,,0.00,,2013-01-20 05:33:00,
2013-01-20 00:43:00,41.0,34.0,29.79,West,276,26.0,34.0,75,0.00,,,0.00,,2013-01-20 05:43:00,
2013-01-20 00:53:00,41.0,34.0,29.79,West,275,26.0,34.0,75,0.00,,,0.00,,2013-01-20 05:53:00,
2013-01-20 01:02:00,40.0,32.0,29.80,West,276,28.0,34.0,74,0.00,,,0.00,,2013-01-20 06:02:00,
2013-01-20 01:12:00,40.0,32.0,29.80,West,276,28.0,34.0,74,0.00,,,0.00,,2013-01-20 06:12:00,
2013-01-20 01:22:00,39.0,31.0,29.80,WNW,291,31.0,39.0,73,0.00,,,0.00,,2013-01-20 06:22:00,
2013-01-20 01:33:00,39.0,31.0,29.81,West,267,18.0,34.0,74,0.00,,,0.00,,2013-01-20 06:33:00,
2013-01-20 01:43:00,39.0,31.0,29.81,West,267,18.0,34.0,74,0.00,,,0.00,,2013-01-20 06:43:00,
2013-01-20 01:53:00,38.0,30.0,29.82,WNW,288,21.0,33.0,74,0.00,,,0.00,,2013-01-20 06:53:00,
2013-01-20 02:02:00,38.0,31.0,29.82,West,269,20.0,29.0,76,0.00,,,0.00,,2013-01-20 07:02:00,
2013-01-20 02:12:00,38.0,31.0,29.82,West,269,20.0,29.0,76,0.00,,,0.00,,2013-01-20 07:12:00,
2013-01-20 02:22:00,37.0,27.0,29.83,WNW,292,32.0,40.0,68,0.00,,,0.00,,2013-01-20 07:22:00,
2013-01-20 02:32:00,36.0,24.0,29.84,WNW,295,32.0,43.0,61,0.00,,,0.00,,2013-01-20 07:32:00,
2013-01-20 02:42:00,36.0,24.0,29.84,WNW,295,32.0,43.0,61,0.00,,,0.00,,2013-01-20 07:42:00,
2013-01-20 02:52:00,35.0,23.0,29.86,West,279,26.0,40.0,62,0.00,,,0.00,,2013-01-20 07:52:00,
2013-01-20 03:02:00,34.0,20.0,29.88,WNW,292,27.0,40.0,57,0.00,,,0.00,,2013-01-20 08:02:00,
2013-01-20 03:12:00,34.0,20.0,29.88,WNW,292,27.0,40.0,57,0.00,,,0.00,,2013-01-20 08:12:00,
2013-01-20 03:22:00,32.0,19.0,29.90,WNW,288,26.0,39.0,58,0.00,,,0.00,,2013-01-20 08:22:00,
2013-01-20 03:32:00,31.0,20.0,29.91,WNW,283,21.0,42.0,62,0.00,,,0.00,,2013-01-20 08:32:00,
2013-01-20 03:42:00,31.0,20.0,29.91,WNW,283,21.0,42.0,62,0.00,,,0.00,,2013-01-20 08:42:00,
2013-01-20 03:53:00,30.0,19.0,29.93,WNW,288,26.0,35.0,64,0.00,,,0.00,,2013-01-20 08:53:00,
2013-01-20 04:02:00,29.0,18.0,29.94,West,265,16.0,37.0,64,0.00,,,0.00,,2013-01-20 09:02:00,
2013-01-20 04:12:00,29.0,18.0,29.94,West,265,16.0,37.0,64,0.00,,,0.00,,2013-01-20 09:12:00,
2013-01-20 04:22:00,28.0,18.0,29.94,WNW,287,24.0,34.0,65,0.00,,,0.00,,2013-01-20 09:22:00,
2013-01-20 04:33:00,28.0,17.0,29.95,West,275,21.0,33.0,64,0.00,,,0.00,,2013-01-20 09:33:00,
2013-01-20 04:42:00,28.0,17.0,29.95,West,275,21.0,33.0,64,0.00,,,0.00,,2013-01-20 09:42:00,
2013-01-20 04:53:00,27.0,16.0,29.96,WNW,283,22.0,38.0,62,0.00,,,0.00,,2013-01-20 09:53:00,
2013-01-20 05:02:00,27.0,15.0,29.98,WNW,299,21.0,32.0,59,0.00,,,0.00,,2013-01-20 10:02:00,
2013-01-20 05:12:00,27.0,15.0,29.98,WNW,299,21.0,32.0,59,0.00,,,0.00,,2013-01-20 10:12:00,
2013-01-20 05:22:00,26.0,12.0,29.98,WNW,300,25.0,33.0,56,0.00,,,0.00,,2013-01-20 10:22:00,
2013-01-20 05:32:00,25.0,12.0,29.99,WNW,299,15.0,27.0,57,0.00,,,0.00,,2013-01-20 10:32:00,
2013-01-20 05:42:00,25.0,12.0,29.99,WNW,299,15.0,27.0,57,0.00,,,0.00,,2013-01-20 10:42:00,
2013-01-20 05:53:00,25.0,13.0,30.00,WNW,288,19.0,29.0,59,0.00,,,0.00,,2013-01-20 10:53:00,
2013-01-20 06:02:00,24.0,12.0,30.01,WNW,299,15.0,27.0,60,0.00,,,0.00,,2013-01-20 11:02:00,
2013-01-20 06:12:00,24.0,12.0,30.01,WNW,299,15.0,27.0,60,0.00,,,0.00,,2013-01-20 11:12:00,
2013-01-20 06:22:00,24.0,13.0,30.02,NW,305,16.0,24.0,61,0.00,,,0.00,,2013-01-20 11:22:00,
2013-01-20 06:33:00,23.0,12.0,30.03,WNW,300,16.0,30.0,62,0.00,,,0.00,,2013-01-20 11:33:00,
2013-01-20 06:43:00,23.0,12.0,30.03,WNW,300,16.0,30.0,62,0.00,,,0.00,,2013-01-20 11:43:00,
2013-01-20 06:54:00,22.0,11.0,30.04,NW,305,14.0,26.0,62,0.00,,,0.00,,2013-01-20 11:54:00,
2013-01-20 07:03:00,22.0,12.0,30.06,WNW,292,15.0,29.0,64,0.00,,,0.00,,2013-01-20 12:03:00,
2013-01-20 07:12:00,22.0,12.0,30.06,WNW,292,15.0,29.0,64,0.00,,,0.00,,2013-01-20 12:12:00,
2013-01-20 07:23:00,21.0,11.0,30.07,WNW,301,19.0,28.0,65,0.00,,,0.00,,2013-01-20 12:23:00,
2013-01-20 07:33:00,21.0,11.0,30.09,NW,306,20.0,26.0,66,0.00,,,0.00,,2013-01-20 12:33:00,
2013-01-20 07:43:00,21.0,11.0,30.09,NW,306,20.0,26.0,66,0.00,,,0.00,,2013-01-20 12:43:00,
2013-01-20 07:53:00,20.0,11.0,30.10,WNW,292,11.0,29.0,67,0.00,,,0.00,,2013-01-20 12:53:00,
2013-01-20 08:03:00,20.0,11.0,30.10,WNW,289,16.0,24.0,67,0.00,,,0.00,,2013-01-20 13:03:00,
2013-01-20 08:12:00,20.0,11.0,30.10,WNW,289,16.0,24.0,67,0.00,,,0.00,,2013-01-20 13:12:00,
2013-01-20 08:23:00,20.0,11.0,30.10,WNW,299,15.0,21.0,69,0.00,,,0.00,,2013-01-20 13:23:00,
2013-01-20 08:33:00,19.0,11.0,30.11,WNW,302,15.0,23.0,70,0.00,,,0.00,,2013-01-20 13:33:00,
2013-01-20 08:43:00,19.0,11.0,30.11,WNW,302,15.0,23.0,70,0.00,,,0.00,,2013-01-20 13:43:00,
2013-01-20 08:53:00,19.0,11.0,30.13,WNW,291,18.0,25.0,69,0.00,,,0.00,,2013-01-20 13:53:00,
2013-01-20 09:02:00,19.0,11.0,30.14,West,280,16.0,27.0,69,0.00,,,0.00,,2013-01-20 14:02:00,
2013-01-20 09:12:00,19.0,11.0,30.14,West,280,16.0,27.0,69,0.00,,,0.00,,2013-01-20 14:12:00,
2013-01-20 09:23:00,20.0,11.0,30.15,WNW,294,19.0,24.0,69,0.00,,,0.00,,2013-01-20 14:23:00,
2013-01-20 09:33:00,20.0,11.0,30.16,WNW,298,20.0,27.0,69,0.00,,,0.00,,2013-01-20 14:33:00,
2013-01-20 09:43:00,20.0,11.0,30.16,WNW,298,20.0,27.0,69,0.00,,,0.00,,2013-01-20 14:43:00,
2013-01-20 09:53:00,20.0,12.0,30.18,WNW,290,18.0,27.0,70,0.00,,,0.00,,2013-01-20 14:53:00,
2013-01-20 10:03:00,20.0,12.0,30.18,WNW,290,18.0,27.0,70,0.00,,,0.00,,2013-01-20 15:03:00,
2013-01-20 10:12:00,20.0,12.0,30.18,WNW,290,18.0,27.0,70,0.00,,,0.00,,2013-01-20 15:12:00,
2013-01-20 10:23:00,20.0,11.0,30.19,WNW,290,14.0,23.0,69,0.00,,,0.00,,2013-01-20 15:23:00,
2013-01-20 10:33:00,20.0,12.0,30.20,WNW,299,14.0,22.0,70,0.00,,,0.00,,2013-01-20 15:33:00,
2013-01-20 10:43:00,20.0,12.0,30.20,WNW,299,14.0,22.0,70,0.00,,,0.00,,2013-01-20 15:43:00,
2013-01-20 10:53:00,20.0,12.0,30.21,NW,315,15.0,19.0,70,0.00,,,0.00,,2013-01-20 15:53:00,
2013-01-20 11:03:00,20.0,12.0,30.21,NW,315,15.0,19.0,70,0.00,,,0.00,,2013-01-20 16:03:00,
2013-01-20 11:12:00,20.0,12.0,30.21,NW,315,15.0,19.0,70,0.00,,,0.00,,2013-01-20 16:12:00,
2013-01-20 11:23:00,20.0,13.0,30.22,NW,316,13.0,17.0,73,0.00,,,0.00,,2013-01-20 16:23:00,
2013-01-20 11:33:00,19.0,11.0,30.21,NW,318,13.0,19.0,72,0.00,,,0.00,,2013-01-20 16:33:00,
2013-01-20 11:43:00,19.0,11.0,30.21,NW,318,13.0,19.0,72,0.00,,,0.00,,2013-01-20 16:43:00,
2013-01-20 11:53:00,21.0,13.0,30.21,NW,307,13.0,19.0,71,0.00,,,0.00,,2013-01-20 16:53:00,
2013-01-20 12:03:00,20.0,12.0,30.21,NW,313,13.0,16.0,70,0.00,,,0.00,,2013-01-20 17:03:00,
2013-01-20 12:13:00,20.0,12.0,30.21,NW,313,13.0,16.0,70,0.00,,,0.00,,2013-01-20 17:13:00,
2013-01-20 12:22:00,21.0,13.0,30.20,WNW,285,11.0,16.0,72,0.00,,,0.00,,2013-01-20 17:22:00,
2013-01-20 12:33:00,22.0,13.0,30.19,West,277,14.0,17.0,69,0.00,,,0.00,,2013-01-20 17:33:00,
2013-01-20 12:42:00,22.0,13.0,30.19,West,277,14.0,17.0,69,0.00,,,0.00,,2013-01-20 17:42:00,
2013-01-20 12:53:00,23.0,14.0,30.19,WNW,286,14.0,17.0,68,0.00,,,0.00,,2013-01-20 17:53:00,
2013-01-20 13:03:00,23.0,13.0,30.19,WNW,300,13.0,19.0,66,0.00,,,0.00,,2013-01-20 18:03:00,
2013-01-20 13:13:00,23.0,14.0,30.19,WNW,297,10.0,19.0,67,0.00,,,0.00,,2013-01-20 18:13:00,
2013-01-20 13:23:00,23.0,14.0,30.19,WNW,297,10.0,19.0,67,0.00,,,0.00,,2013-01-20 18:23:00,
2013-01-20 13:33:00,23.0,13.0,30.17,NNW,334,7.0,16.0,65,0.00,,,0.00,,2013-01-20 18:33:00,
2013-01-20 13:43:00,23.0,13.0,30.17,NNW,334,7.0,16.0,65,0.00,,,0.00,,2013-01-20 18:43:00,
2013-01-20 13:53:00,23.0,13.0,30.16,NW,322,12.0,16.0,66,0.00,,,0.00,,2013-01-20 18:53:00,
2013-01-20 14:03:00,23.0,13.0,30.16,WNW,284,12.0,16.0,65,0.00,,,0.00,,2013-01-20 19:03:00,
2013-01-20 14:12:00,23.0,13.0,30.16,WNW,284,12.0,16.0,65,0.00,,,0.00,,2013-01-20 19:12:00,
2013-01-20 14:22:00,23.0,13.0,30.16,WNW,284,12.0,16.0,65,0.00,,,0.00,,2013-01-20 19:22:00,
2013-01-20 14:33:00,23.0,13.0,30.16,WNW,299,8.0,15.0,64,0.00,,,0.00,,2013-01-20 19:33:00,
2013-01-20 14:43:00,23.0,13.0,30.16,WNW,299,8.0,15.0,64,0.00,,,0.00,,2013-01-20 19:43:00,
2013-01-20 14:53:00,24.0,14.0,30.17,NNW,339,11.0,17.0,64,0.00,,,0.00,,2013-01-20 19:53:00,
2013-01-20 15:03:00,24.0,13.0,30.17,West,280,13.0,19.0,63,0.00,,,0.00,,2013-01-20 20:03:00,
2013-01-20 15:12:00,24.0,13.0,30.17,West,280,13.0,19.0,63,0.00,,,0.00,,2013-01-20 20:12:00,
2013-01-20 15:23:00,25.0,13.0,30.16,NNW,329,12.0,20.0,60,0.00,,,0.00,,2013-01-20 20:23:00,
2013-01-20 15:33:00,25.0,13.0,30.18,WNW,297,11.0,16.0,61,0.00,,,0.00,,2013-01-20 20:33:00,
2013-01-20 15:42:00,25.0,13.0,30.18,WNW,297,11.0,16.0,61,0.00,,,0.00,,2013-01-20 20:42:00,
2013-01-20 15:53:00,24.0,13.0,30.19,NW,304,10.0,17.0,61,0.00,,,0.00,,2013-01-20 20:53:00,
2013-01-20 16:04:00,24.0,13.0,30.18,West,269,14.0,17.0,61,0.00,,,0.00,,2013-01-20 21:04:00,
2013-01-20 16:13:00,24.0,13.0,30.18,West,269,14.0,17.0,61,0.00,,,0.00,,2013-01-20 21:13:00,
2013-01-20 16:23:00,23.0,12.0,30.17,WNW,296,12.0,18.0,62,0.00,,,0.00,,2013-01-20 21:23:00,
2013-01-20 16:33:00,23.0,12.0,30.17,WNW,291,9.0,16.0,62,0.00,,,0.00,,2013-01-20 21:33:00,
2013-01-20 16:43:00,23.0,12.0,30.17,WNW,291,9.0,16.0,62,0.00,,,0.00,,2013-01-20 21:43:00,
2013-01-20 16:53:00,23.0,12.0,30.17,WNW,291,9.0,14.0,62,0.00,,,0.00,,2013-01-20 21:53:00,
2013-01-20 17:03:00,23.0,12.0,30.17,West,273,13.0,14.0,61,0.00,,,0.00,,2013-01-20 22:03:00,
2013-01-20 17:13:00,23.0,12.0,30.17,West,273,13.0,14.0,61,0.00,,,0.00,,2013-01-20 22:13:00,
2013-01-20 17:23:00,23.0,12.0,30.18,WNW,290,11.0,14.0,62,0.00,,,0.00,,2013-01-20 22:23:00,
2013-01-20 17:33:00,23.0,12.0,30.18,WNW,302,8.0,14.0,62,0.00,,,0.00,,2013-01-20 22:33:00,
2013-01-20 17:43:00,23.0,12.0,30.18,WNW,302,8.0,14.0,62,0.00,,,0.00,,2013-01-20 22:43:00,
2013-01-20 17:53:00,22.0,11.0,30.18,WNW,297,10.0,15.0,61,0.00,,,0.00,,2013-01-20 22:53:00,
2013-01-20 18:03:00,22.0,11.0,30.19,WNW,284,10.0,13.0,62,0.00,,,0.00,,2013-01-20 23:03:00,
2013-01-20 18:13:00,22.0,11.0,30.19,WNW,284,10.0,13.0,62,0.00,,,0.00,,2013-01-20 23:13:00,
2013-01-20 18:23:00,22.0,11.0,30.19,WNW,283,10.0,13.0,63,0.00,,,0.00,,2013-01-20 23:23:00,
2013-01-20 18:33:00,22.0,11.0,30.19,WNW,284,10.0,13.0,63,0.00,,,0.00,,2013-01-20 23:33:00,
2013-01-20 18:43:00,22.0,11.0,30.19,WNW,284,10.0,13.0,63,0.00,,,0.00,,2013-01-20 23:43:00,
2013-01-20 18:53:00,22.0,12.0,30.19,West,280,7.0,13.0,64,0.00,,,0.00,,2013-01-20 23:53:00,
2013-01-20 19:03:00,22.0,11.0,30.19,WNW,288,10.0,13.0,63,0.00,,,0.00,,2013-01-21 00:03:00,
2013-01-20 19:13:00,22.0,11.0,30.19,WNW,288,10.0,13.0,63,0.00,,,0.00,,2013-01-21 00:13:00,
2013-01-20 19:23:00,22.0,11.0,30.19,West,280,7.0,14.0,62,0.00,,,0.00,,2013-01-21 00:23:00,
2013-01-20 19:33:00,22.0,11.0,30.19,WNW,287,9.0,13.0,61,0.00,,,0.00,,2013-01-21 00:33:00,
2013-01-20 19:43:00,22.0,11.0,30.19,WNW,287,9.0,13.0,61,0.00,,,0.00,,2013-01-21 00:43:00,
2013-01-20 19:54:00,22.0,11.0,30.19,WNW,287,9.0,13.0,61,0.00,,,0.00,,2013-01-21 00:54:00,
2013-01-20 20:03:00,21.0,10.0,30.19,WNW,288,9.0,12.0,62,0.00,,,0.00,,2013-01-21 01:03:00,
2013-01-20 20:13:00,21.0,10.0,30.19,WNW,288,9.0,12.0,62,0.00,,,0.00,,2013-01-21 01:13:00,
2013-01-20 20:23:00,21.0,10.0,30.19,WNW,288,9.0,12.0,62,0.00,,,0.00,,2013-01-21 01:23:00,
2013-01-20 20:33:00,21.0,11.0,30.18,West,280,7.0,9.0,64,0.00,,,0.00,,2013-01-21 01:33:00,
2013-01-20 20:43:00,21.0,11.0,30.18,West,280,7.0,9.0,64,0.00,,,0.00,,2013-01-21 01:43:00,
2013-01-20 20:53:00,21.0,10.0,30.18,NW,318,6.0,9.0,61,0.00,,,0.00,,2013-01-21 01:53:00,
2013-01-20 21:03:00,21.0,10.0,30.18,NNW,330,7.0,9.0,61,0.00,,,0.00,,2013-01-21 02:03:00,
2013-01-20 21:12:00,21.0,10.0,30.18,NNW,330,7.0,9.0,61,0.00,,,0.00,,2013-01-21 02:12:00,
2013-01-20 21:23:00,20.0,10.0,30.18,NNW,333,0.0,5.0,64,0.00,,,0.00,,2013-01-21 02:23:00,
2013-01-20 21:33:00,20.0,10.0,30.17,NNW,339,0.0,7.0,65,0.00,,,0.00,,2013-01-21 02:33:00,
2013-01-20 21:43:00,20.0,10.0,30.17,NNW,339,0.0,7.0,65,0.00,,,0.00,,2013-01-21 02:43:00,
2013-01-20 21:53:00,20.0,10.0,30.18,NNW,345,0.0,10.0,65,0.00,,,0.00,,2013-01-21 02:53:00,
2013-01-20 22:03:00,20.0,11.0,30.17,NNW,345,0.0,6.0,66,0.00,,,0.00,,2013-01-21 03:03:00,
2013-01-20 22:13:00,20.0,11.0,30.17,NNW,345,0.0,6.0,66,0.00,,,0.00,,2013-01-21 03:13:00,
2013-01-20 22:23:00,19.0,10.0,30.16,NNW,347,0.0,3.0,67,0.00,,,0.00,,2013-01-21 03:23:00,
2013-01-20 22:33:00,19.0,10.0,30.16,NNW,347,0.0,3.0,67,0.00,,,0.00,,2013-01-21 03:33:00,
2013-01-20 22:43:00,19.0,10.0,30.16,NNW,347,0.0,3.0,67,0.00,,,0.00,,2013-01-21 03:43:00,
2013-01-20 22:54:00,18.0,9.0,30.16,North,349,0.0,1.0,68,0.00,,,0.00,,2013-01-21 03:54:00,
2013-01-20 23:03:00,18.0,10.0,30.16,North,349,0.0,0.0,69,0.00,,,0.00,,2013-01-21 04:03:00,
2013-01-20 23:13:00,18.0,10.0,30.16,North,349,0.0,0.0,69,0.00,,,0.00,,2013-01-21 04:13:00,
2013-01-20 23:23:00,18.0,10.0,30.16,North,349,0.0,5.0,69,0.00,,,0.00,,2013-01-21 04:23:00,
2013-01-20 23:33:00,18.0,10.0,30.16,North,349,0.0,0.0,69,0.00,,,0.00,,2013-01-21 04:33:00,
2013-01-20 23:43:00,18.0,10.0,30.16,North,349,0.0,0.0,69,0.00,,,0.00,,2013-01-21 04:43:00,
2013-01-20 23:53:00,18.0,10.0,30.15,North,349,0.0,0.0,70,0.00,,,0.00,,2013-01-21 04:53:00,